Tracking 23610 objects as of 20-Sep-2021
HD Live streaming from Space Station
objects crossing your sky now

STARLINK-1899

Track STARLINK-1899 now!
10-day predictions
STARLINK-1899 is classified as:


NORAD ID: 46787
Int'l Code: 2020-074BA
Perigee: 551.1 km
Apogee: 557.7 km
Inclination: 53.1 °
Period: 95.6 minutes
Semi major axis: 6925 km
RCS: Unknown
Launch date: October 24, 2020
Source: United States (US)
Launch site: AIR FORCE EASTERN TEST RANGE (AFETR)
aabbcc
Your satellite tracking list
Your tracking list is empty




NASA's NSSDC Master Catalog

Two Line Element Set (TLE):
1 46787U 20074BA  21262.92809642 -.00000779  00000-0 -33313-4 0  9990
2 46787  53.0507  56.8889 0004767 222.7028 137.3591 15.06396103 50834
Source of the keplerian elements: AFSPC